Theta_e
298 298 297 292 291 296 291 292 291 295 300 306 314 315 319 323 324 326 330 333 331 329 330 334 337 339 346 345 343 342 344 345
296 297 296 294 296 291 290 285 284 292 295 299 309 312 318 322 323 325 330 333 333 332 329 333 337 339 344 346 344 344 344 344
290 288 289 291 289 290 292 291 289 287 293 302 309 314 317 321 323 327 331 333 333 334 331 331 338 339 342 346 345 345 346 346
287 290 293 292 291 291 287 286 290 290 294 305 308 315 321 324 333 333 334 334 335 333 334 332 335 339 341 344 346 346 347 345
283 286 288 288 290 289 289 288 289 290 293 310 314 319 322 326 331 334 335 333 335 335 334 334 333 337 341 343 345 347 347 345
284 285 288 289 293 293 291 288 289 292 294 305 318 323 326 329 330 331 331 333 334 334 334 336 335 336 339 343 345 345 347 346
287 293 294 293 298 295 290 289 291 294 297 304 318 325 327 329 329 328 329 329 330 331 335 336 335 336 338 343 344 345 347 346
286 294 294 300 307 305 307 309 295 308 309 318 324 327 326 325 325 324 325 326 328 330 332 334 338 340 339 343 344 345 345 346
284 291 292 293 305 307 308 310 311 305 314 322 320 322 322 321 322 321 322 323 325 326 329 331 332 333 337 342 344 345 344 345
284 287 282 299 310 311 309 310 313 318 321 321 319 320 321 322 320 319 320 321 322 324 325 325 325 325 330 337 343 345 344 346
285 285 295 301 306 307 304 306 313 313 318 319 320 319 318 321 321 319 319 319 320 323 325 325 324 324 326 329 333 332 332 334
284 285 285 297 307 312 311 300 314 315 315 315 317 308 316 320 320 319 320 320 318 322 322 321 322 325 323 322 323 324 326 329
286 289 294 305 309 312 296 300 315 313 316 316 314 317 320 320 320 319 318 318 318 319 320 321 322 323 322 323 322 324 325 327
287 287 286 307 309 300 307 314 313 314 316 315 317 317 316 316 317 318 317 318 318 316 316 319 322 322 321 321 324 326 327 327
297 297 304 302 304 311 311 310 311 315 317 316 314 315 317 316 313 314 317 316 317 315 314 316 320 320 318 319 321 324 327 329
296 299 299 300 302 304 305 312 315 314 318 316 313 313 315 315 315 315 315 317 315 313 312 311 315 316 317 318 320 321 325 327
293 297 302 304 300 302 303 305 305 306 313 318 316 313 311 312 313 314 314 313 313 312 311 311 313 313 314 317 317 317 321 325
292 296 294 297 300 302 301 303 304 303 303 305 316 315 315 314 311 311 311 312 310 310 311 309 309 310 311 315 314 314 318 322
295 298 298 299 300 300 299 300 303 305 304 303 304 315 316 313 311 313 311 311 310 310 307 305 304 305 306 309 310 316 321 319
Wind_Speed
7 5 12 4 5 10 5 1 3 5 7 9 5 9 11 15 14 17 17 18 22 22 21 20 20 20 20 18 16 12 12 9
4 6 3 8 7 5 3 6 5 6 5 7 5 2 3 8 15 13 13 16 15 17 19 17 15 18 18 18 18 13 9 9
4 5 9 3 3 3 6 5 6 3 9 8 8 8 7 8 8 6 8 12 13 15 14 13 12 11 12 15 16 14 12 10
10 2 4 8 10 8 7 6 2 4 9 5 3 4 12 8 9 6 8 9 9 8 14 13 13 14 15 11 14 14 13 10
10 8 3 5 5 5 4 4 9 6 8 8 6 6 5 15 8 7 5 6 6 7 5 15 18 13 15 13 13 12 11 11
11 9 5 3 4 5 7 5 6 7 6 3 8 7 4 9 9 7 5 5 10 9 2 15 14 16 16 14 10 9 11 12
3 4 4 4 4 1 6 5 7 8 10 4 12 15 9 9 13 13 11 12 14 15 11 6 10 10 10 11 11 10 11 12
1 3 6 6 9 5 8 5 3 6 2 0 7 10 16 12 12 15 12 13 13 9 11 11 9 6 7 9 9 7 12 13
4 3 4 6 11 5 9 11 6 6 6 12 11 13 11 15 12 14 13 10 8 9 9 11 10 7 6 3 7 14 15 14
4 2 4 5 2 13 16 15 17 10 9 14 14 11 12 10 14 15 10 11 10 9 8 10 8 7 5 5 5 3 8 13
4 4 4 1 4 2 2 7 12 7 9 14 13 12 16 12 11 9 8 7 7 6 7 8 8 8 6 6 5 6 6 5
3 5 4 2 4 7 3 4 7 6 9 6 2 5 4 8 9 8 5 5 6 9 8 8 7 7 5 7 7 7 6 6
2 5 2 5 12 6 4 5 4 6 8 9 5 4 7 7 7 2 1 4 4 3 8 6 6 4 6 6 8 8 7 7
1 5 3 17 6 2 5 2 5 10 8 10 7 8 8 8 6 5 5 6 6 6 5 5 5 5 8 9 8 7 9 7
4 6 3 10 10 7 4 5 3 6 11 10 6 3 4 3 1 2 5 6 5 4 6 7 6 6 7 8 8 8 9 9
1 5 5 13 17 18 13 6 6 6 6 9 6 5 4 3 4 4 4 3 4 4 7 6 6 4 3 6 7 7 9 11
4 4 2 6 13 15 16 15 14 12 8 10 3 2 3 4 3 4 2 0 4 6 5 5 6 6 7 7 7 6 5 7
2 4 2 5 12 15 14 13 12 9 10 11 4 6 3 3 3 1 2 3 4 2 2 3 6 7 7 8 7 6 4 5
3 2 1 5 8 8 12 11 12 10 6 6 6 5 6 2 0 3 2 4 4 5 6 7 7 6 8 10 8 8 6 5
Wind_Direction
209 145 143 197 154 191 131 13 75 236 296 307 291 314 184 177 183 187 188 190 186 183 184 185 187 188 187 187 199 189 190 184
194 118 226 155 183 87 7 174 211 276 265 239 256 146 188 175 184 194 192 193 184 181 187 186 190 188 190 189 193 195 190 198
81 194 176 87 153 85 124 143 180 179 273 217 235 185 167 106 85 85 171 182 185 181 174 172 176 186 199 195 196 193 192 197
209 230 193 168 187 162 151 233 216 165 257 274 199 167 129 123 111 121 128 126 116 154 168 165 177 180 186 198 202 202 194 190
330 350 0 189 193 156 124 104 195 162 263 340 105 111 141 141 124 104 111 108 82 108 209 180 177 174 194 182 199 198 194 193
210 208 189 160 151 169 143 137 181 202 216 251 93 94 105 92 79 75 104 118 95 54 212 172 168 173 176 187 185 195 192 199
247 183 179 100 32 46 170 193 168 209 185 211 150 136 115 96 88 71 43 27 55 46 39 73 144 163 178 178 190 185 199 205
202 247 220 112 23 47 57 351 209 121 132 284 53 112 112 93 82 81 62 42 42 53 62 53 45 67 171 166 183 175 214 221
238 220 132 26 354 66 83 34 309 192 172 127 106 108 92 107 112 105 99 87 70 44 46 50 36 28 23 43 188 198 204 225
213 69 141 181 45 92 83 37 12 44 82 86 100 89 79 72 88 88 75 71 50 42 47 41 18 5 359 16 44 46 227 214
135 73 103 287 25 320 116 45 15 21 77 101 99 86 67 61 63 74 77 70 69 52 53 50 23 351 3 26 41 51 28 6
110 116 149 150 327 326 311 73 11 28 43 5 250 109 90 66 67 57 51 76 73 69 54 47 31 21 21 33 24 13 349 327
73 101 324 36 324 272 118 160 84 76 58 60 80 63 85 75 59 68 246 67 61 95 86 54 31 14 44 38 20 351 320 310
8 77 0 354 341 125 129 66 106 88 77 87 75 70 65 52 28 10 351 25 20 16 28 44 19 11 25 19 350 333 344 322
31 78 3 357 24 16 12 108 85 100 111 101 108 98 76 101 285 20 14 15 8 360 9 357 7 4 24 347 342 336 343 343
114 353 17 28 15 17 17 16 21 35 91 102 113 121 135 111 46 23 18 20 3 348 52 359 319 347 359 343 344 355 350 354
73 336 90 51 22 2 352 2 15 14 1 82 110 147 148 133 144 97 110 342 56 1 32 357 323 355 339 348 347 349 335 339
126 168 139 291 346 346 345 351 341 348 353 23 341 283 323 330 79 109 145 141 143 222 21 358 1 355 343 351 342 323 339 339
112 344 204 276 300 3 331 330 335 326 334 324 317 265 246 188 206 252 336 27 15 10 23 9 5 359 350 340 346 342 346 345